Regional Weather Roundup
Issued by NWS Cleveland, OH

Home | Current Version | Previous Version | Graphics & Text | Print | Product List | Glossary On
Versions: 1 2 3 4 5 6 7 8 9 10 11 12 13 14 15 16 17 18 19 20 21 22 23 24 25 26 27 28 29 30 31 32 33 34 35 36 37 38 39 40 41 42 43 44 45 46 47 48 49 50
000
ASUS41 KCLE 232212
RWRCLE
OHIO REGIONAL WEATHER ROUNDUP
NATIONAL WEATHER SERVICE WILMINGTON, OH
600 PM EDT THU MAR 23 2017

NOTE: "FAIR" INDICATES FEW OR NO CLOUDS BELOW 12,000 FEET WITH NO
SIGNIFICANT WEATHER AND/OR OBSTRUCTIONS TO VISIBILITY.

OHZ001>008-015>018-024>027-034-035-043-044-232300-
   NORTHWEST OHIO

CITY           SKY/WX    TMP DP  RH WIND       PRES   REMARKS
DEFIANCE       FAIR      48  14  25 SE16      30.27F
FINDLAY        FAIR      51  11  20 S12       30.28F
TOLEDO EXPRESS PTSUNNY   49   9  19 SE7       30.29F
TOLEDO EXEC    FAIR      44  27  51 E10       30.32F
LIMA           FAIR      51  18  27 S13       30.27F
$$

OHZ009>014-019>023-028>033-038-089-232300-
   NORTHEAST OHIO

CITY           SKY/WX    TMP DP  RH WIND       PRES   REMARKS
CLE-HOPKINS    FAIR      51   9  18 S12       30.36F
CLE-LAKEFRONT  FAIR      40  32  73 N9        30.33F
CUY CO. ARPT   MOSUNNY   50  10  20 S9        30.34F
LORAIN-ELYRIA  FAIR      48  12  23 S10       30.33F
ASHTABULA      FAIR      46  12  25 S7        30.35F
AKRON-CANTON   FAIR      49  10  20 S10       30.34F
WOOSTER        FAIR      48  16  27 S9        30.33F
MANSFIELD      FAIR      50   9  19 S14       30.29F
YOUNGSTOWN     FAIR      47   7  19 SE8       30.35F
$$

OHZ042-051>053-060>062-070>072-077>081-232300-
  SOUTHWEST OHIO

CITY           SKY/WX    TMP DP  RH WIND       PRES   REMARKS
CINC-COVINGTON FAIR      60  26  27 S8        30.25F
CINC-LUNKEN    PTSUNNY   59  27  29 S9        30.27F
HAMILTON       FAIR      59  24  26 VRB6      30.27F
DAYTON         PTSUNNY   53  23  31 S12       30.27F
WRIGHT-PAT AFB PTSUNNY   54  20  26 SE8       30.27F
DAYTON GENERAL CLOUDY    56  23  27 S10       30.26F
WILMINGTON     PTSUNNY   54  26  34 S6        30.27F
$$

OHZ036-037-039>041-045>050-054>059-063>069-073>076-082>088-232300-
  CENTRAL AND SOUTHEAST OHIO

CITY           SKY/WX    TMP DP  RH WIND       PRES   REMARKS
COLUMBUS       FAIR      56  12  17 SE10      30.30F
OSU AIRPORT    FAIR      54  14  20 SE12      30.29F
BOLTON FIELD   SUNNY     54  19  26 SE8       30.30F
RICKENBACK AFB FAIR     N/A N/A N/A S8        30.30F
NEWARK         FAIR      54  10  17 S10       30.31F
MARION         FAIR      52   9  17 SE14      30.30F
LANCASTER      FAIR      58  16  19 SE12      30.31F
ZANESVILLE     FAIR      55   7  14 SE10      30.32F
NEW PHILLY     FAIR      52   7  16 S9        30.35F
$$



USA.gov is the U.S. government's official web portal to all federal, state and local government web resources and services.